Theta_e
349 347 345 342 337 336 333 328 321 321 323 326 330 330 328 325 324 325 326 327 332 336 338 338 338 338 338 337 337 337 337 334 335 335 337 340 339 337 335 335 338 338 338 338 337 337 337 337 337 337 336 335 333 332 332 333 334 334 333 332 333 332 330 331 331 330 329 329 329 329 329 330 331 333 334 335 334 334 334 334 335 336 336 338 338
349 347 346 341 338 336 333 328 321 322 326 328 330 329 326 325 326 327 330 332 334 337 338 339 339 339 338 339 340 339 339 337 338 338 339 339 338 336 334 335 338 339 339 339 338 338 336 336 338 338 336 334 333 332 332 333 334 333 333 333 334 333 332 332 331 331 331 329 329 329 329 329 331 332 333 334 333 333 333 333 334 335 336 337 338
346 347 346 342 339 335 334 327 320 323 327 330 330 328 325 327 331 331 334 336 337 338 338 338 339 339 338 340 340 340 341 340 339 339 340 340 340 339 335 334 338 340 339 339 339 339 334 334 336 336 336 335 335 333 334 336 335 334 334 333 333 333 333 333 329 330 331 329 329 328 328 329 330 331 332 333 333 333 333 333 333 334 335 335 336
346 347 345 344 340 335 335 327 321 324 329 331 330 328 325 330 334 335 337 337 338 338 339 339 338 339 338 339 340 341 342 341 339 340 340 340 341 340 337 335 338 338 338 338 338 338 336 335 336 336 336 335 334 334 335 336 335 335 335 333 334 335 334 332 329 329 330 329 328 328 328 328 329 330 330 331 332 332 332 332 333 333 333 333 333
346 347 345 344 339 335 335 327 321 325 330 331 330 329 326 329 334 335 336 337 339 338 339 339 339 339 338 339 340 342 342 341 339 338 337 337 339 339 338 337 338 337 337 338 337 338 337 337 338 339 339 337 336 334 335 335 336 336 335 335 335 335 334 334 332 329 328 328 329 328 328 329 328 328 328 330 331 331 331 331 331 332 332 332 332
346 346 345 344 338 336 335 328 321 325 331 330 330 331 326 327 332 334 333 335 338 338 338 339 340 340 339 340 339 341 342 341 340 337 336 336 338 339 338 339 339 338 337 336 336 337 337 337 338 339 339 338 338 336 335 335 336 336 336 336 335 335 335 335 333 330 326 325 328 328 328 328 329 328 328 329 330 330 330 330 330 330 330 330 330
347 346 346 343 338 335 335 328 321 325 331 330 330 331 327 327 332 333 332 333 336 337 337 337 339 339 341 342 338 339 342 341 340 339 339 339 339 339 339 339 339 338 337 335 335 336 336 337 337 338 339 338 338 337 337 336 335 334 336 335 336 335 336 335 331 330 328 325 327 328 328 329 329 329 329 329 329 328 329 329 329 329 329 329 329
346 346 345 341 338 335 335 328 321 325 330 330 330 329 327 330 332 332 334 334 336 337 337 337 338 339 341 342 339 339 340 339 340 340 339 338 338 339 338 338 339 338 338 335 334 335 337 337 337 338 338 338 336 335 335 335 334 333 333 333 335 334 335 335 331 331 329 328 327 324 326 328 328 328 329 329 328 328 328 328 328 328 328 329 329
346 346 344 341 338 335 336 329 322 324 330 331 329 327 327 331 332 333 334 334 337 338 338 338 338 339 340 341 341 339 339 338 338 338 338 337 337 338 338 338 339 338 337 335 331 330 334 336 337 337 336 336 334 333 332 332 332 332 332 332 334 334 334 334 331 330 330 330 326 323 325 326 326 327 327 327 327 327 327 327 327 327 328 329 330
346 345 344 340 337 336 336 331 323 322 329 331 328 327 329 333 334 333 331 329 333 335 336 337 338 339 338 339 340 339 339 338 338 338 339 339 338 339 339 339 338 337 335 334 330 325 327 332 333 333 333 332 331 331 332 331 331 332 333 334 334 335 334 332 329 329 330 328 324 324 327 327 328 328 328 328 327 328 327 327 327 327 328 329 329
345 346 343 340 338 336 336 334 326 322 328 330 329 329 332 337 336 333 329 327 327 332 336 336 337 339 338 338 338 339 339 338 338 339 339 339 339 339 338 338 337 337 335 333 332 325 321 327 330 330 330 330 331 331 331 331 331 333 334 334 334 335 334 330 328 328 329 326 322 325 328 328 328 329 329 330 328 328 328 328 328 328 328 328 328
345 346 343 340 338 337 336 335 327 323 328 332 333 331 335 339 338 334 328 326 325 329 333 335 337 337 337 338 339 339 338 339 338 339 338 339 339 338 337 337 336 336 336 333 332 328 320 323 328 328 329 329 330 331 331 331 332 334 334 333 334 334 331 328 327 328 328 327 324 325 327 327 327 328 329 329 328 328 327 328 328 328 328 328 328
346 345 343 341 338 337 336 335 328 324 330 335 335 333 337 340 339 336 329 327 327 329 331 333 335 335 335 336 337 337 336 336 336 337 337 337 337 337 336 336 336 335 336 333 331 330 323 321 327 328 329 329 330 331 331 331 333 334 333 333 333 332 330 327 327 328 329 328 326 324 326 328 328 328 328 328 328 327 327 327 327 328 328 327 328
345 344 344 342 340 338 336 335 328 326 333 337 337 335 338 340 340 336 331 329 330 332 333 332 332 333 333 334 334 333 332 332 332 334 336 337 336 336 336 335 335 334 334 332 328 329 325 322 326 328 328 329 330 331 330 331 333 334 333 333 332 331 329 327 327 328 328 327 325 323 325 327 328 328 328 328 327 327 327 327 327 326 326 326 326
344 344 344 343 342 339 337 335 329 330 336 337 336 336 339 340 340 337 333 332 333 335 335 334 333 333 335 335 333 330 329 329 329 332 334 335 335 335 335 334 334 334 334 333 327 325 326 323 325 328 329 329 330 330 330 331 333 334 334 333 332 331 329 327 327 327 327 326 325 324 324 325 326 328 327 327 327 327 326 327 327 326 326 326 326
343 344 345 344 343 340 338 337 333 331 334 335 335 336 339 339 339 337 334 332 334 336 336 336 336 336 337 336 334 331 329 328 329 331 332 333 333 333 332 333 334 334 333 333 327 322 324 323 325 328 328 329 329 329 329 331 332 333 334 333 332 331 329 328 326 326 326 326 325 325 325 325 326 328 328 328 328 327 327 327 326 326 326 326 326
344 344 345 344 343 342 340 338 336 333 333 334 336 337 339 339 339 336 333 332 335 336 337 337 337 337 337 336 335 335 333 331 330 330 332 331 332 332 332 333 335 334 332 332 328 321 322 323 325 326 327 328 328 328 329 331 332 333 334 334 332 331 330 327 327 327 326 326 326 327 327 328 326 326 328 327 327 327 327 327 326 326 326 325 324
344 344 344 344 344 342 341 339 338 336 335 336 338 338 338 338 338 335 332 333 336 337 336 337 337 338 338 336 335 337 336 335 332 331 332 332 333 333 334 335 336 335 333 332 327 321 321 322 324 325 325 327 326 327 329 331 332 334 334 334 332 331 329 327 327 327 327 326 326 328 330 329 326 325 327 327 326 326 326 326 326 326 325 325 324
344 344 343 344 343 343 342 340 338 337 336 337 338 338 338 338 337 335 332 333 336 337 336 337 337 338 338 337 336 337 337 336 334 333 333 333 334 334 335 336 336 335 334 332 326 321 320 320 322 323 324 325 325 326 330 331 331 333 334 334 333 331 329 328 328 327 327 327 326 329 330 329 327 326 326 325 323 323 325 326 325 324 323 323 324
344 344 344 343 343 343 342 341 339 337 336 336 338 339 338 337 336 334 332 335 337 337 337 337 337 338 338 338 337 338 338 337 335 335 334 333 333 333 334 334 334 333 333 331 325 320 320 321 322 322 323 323 324 327 330 330 330 333 334 333 332 330 329 328 328 327 327 327 326 328 329 330 329 327 325 322 320 319 320 320 321 321 321 321 323
344 343 343 343 342 342 342 341 339 337 336 337 340 339 338 337 335 333 334 337 337 337 337 337 338 338 338 339 339 339 338 338 336 335 334 333 332 331 329 329 330 331 331 328 322 319 320 321 323 324 324 322 323 327 330 330 330 332 333 333 332 330 329 328 328 327 327 327 327 328 329 330 330 329 326 323 324 323 317 316 318 321 321 321 322
344 343 342 342 342 342 342 341 339 338 337 338 340 339 338 337 334 334 336 337 338 337 337 337 337 337 338 339 338 339 338 338 336 335 334 333 332 328 325 324 325 326 326 323 321 320 320 320 323 326 326 324 324 328 330 330 330 332 334 333 332 331 329 328 327 327 327 326 328 329 330 330 330 330 328 326 328 326 322 318 317 320 322 322 322
344 343 341 342 342 342 342 340 339 339 339 339 339 338 337 336 335 337 338 338 338 337 336 336 335 336 337 337 338 338 337 336 335 334 333 333 331 326 324 324 323 323 323 322 322 321 321 321 322 326 328 326 326 328 329 329 330 333 334 333 332 331 329 328 327 326 326 326 328 329 331 331 330 331 330 329 329 327 324 320 316 318 321 320 320
345 344 341 341 343 343 341 340 340 340 340 339 339 339 338 336 337 338 338 338 337 335 334 334 335 335 336 336 336 335 335 335 335 335 333 332 330 326 324 324 324 323 323 323 322 321 322 321 321 324 328 328 327 328 328 328 330 333 334 333 333 330 329 328 327 326 326 327 328 329 331 330 330 330 331 331 330 328 325 321 314 313 317 317 316
343 343 342 341 342 343 341 341 340 341 340 339 339 339 338 337 338 338 337 337 335 333 332 333 335 335 335 335 335 334 334 334 334 333 331 330 329 327 325 325 324 323 323 323 323 323 323 323 322 324 327 328 328 328 328 328 330 332 333 333 332 329 328 327 327 326 327 328 329 330 330 330 330 331 332 332 331 329 326 322 316 313 314 315 316
342 343 342 341 341 342 341 341 340 340 340 339 338 337 336 336 337 337 336 335 333 332 332 334 335 334 334 334 333 334 333 333 333 331 329 328 329 327 326 325 325 324 324 326 325 326 327 326 325 325 327 328 329 330 330 328 329 331 333 332 331 329 328 327 327 326 327 329 329 330 330 330 330 331 332 333 332 329 327 323 320 318 313 314 317
341 343 342 340 340 340 341 341 340 340 339 338 337 335 336 337 336 335 334 333 331 331 333 335 334 333 332 332 333 333 333 333 332 330 327 327 328 328 327 326 327 328 329 329 328 328 330 329 327 328 328 329 330 331 331 329 329 330 332 332 330 329 328 327 326 326 327 328 328 328 329 330 330 329 331 333 332 329 327 325 324 323 317 317 319
341 342 342 340 339 339 341 341 340 339 338 337 335 335 337 336 334 334 333 331 329 330 333 335 334 332 332 332 333 334 335 334 332 330 326 326 327 327 328 327 328 331 331 330 330 330 331 330 330 330 330 331 331 332 331 330 330 329 330 332 331 329 328 327 326 326 327 326 327 327 328 330 329 329 332 332 330 328 328 327 326 325 321 317 317
341 340 341 340 339 339 340 340 339 337 337 336 335 335 335 333 333 332 331 330 329 329 332 334 333 333 333 333 333 334 334 332 332 331 327 326 328 329 330 330 329 330 331 331 331 331 332 331 331 331 331 331 331 332 331 331 331 330 331 333 331 329 328 327 326 326 325 325 326 326 327 329 330 330 331 331 330 329 328 328 327 326 324 320 317
339 339 339 340 339 338 339 339 338 337 337 336 335 334 333 332 331 331 330 329 328 330 332 333 333 334 334 334 334 334 332 331 331 331 328 327 328 330 331 331 330 330 330 330 331 331 331 332 332 331 331 331 331 331 331 332 332 331 332 332 332 329 328 327 326 324 324 325 327 328 328 329 331 332 331 331 330 330 328 328 328 328 326 324 322
339 339 339 339 338 338 338 338 337 336 336 335 334 332 331 331 329 330 331 328 329 331 332 333 334 335 335 335 335 334 333 332 332 332 330 328 328 330 331 331 331 330 330 330 330 330 331 331 331 331 331 330 330 330 331 332 332 332 332 332 331 329 327 326 324 323 323 325 328 329 329 330 330 331 331 330 330 330 328 328 328 328 327 325 324
339 339 338 339 338 337 337 337 337 335 335 334 333 331 329 330 329 330 330 329 331 332 331 332 334 335 336 335 335 334 334 333 333 333 332 330 329 330 330 331 332 331 331 331 331 331 330 331 331 330 330 329 329 330 331 332 331 331 332 331 329 327 325 323 322 322 323 326 329 330 330 330 330 330 330 330 330 330 329 328 328 328 328 326 324
338 338 338 338 338 337 336 336 336 335 334 333 331 329 328 329 330 330 330 331 334 333 330 331 334 335 335 334 335 334 334 334 334 333 333 331 331 331 331 331 332 331 331 331 331 331 330 331 330 330 328 328 328 330 331 331 331 331 331 330 329 328 324 320 321 322 324 327 329 330 330 330 330 330 330 330 330 330 330 330 330 330 329 327 325
336 337 337 337 337 337 337 336 335 335 334 331 330 329 328 329 331 331 330 333 335 333 330 332 334 334 334 333 334 334 334 333 334 334 333 333 332 332 331 331 331 331 331 331 331 331 330 330 330 329 328 327 328 330 330 330 330 331 331 330 330 330 325 323 324 323 325 328 328 329 329 329 329 328 329 330 330 330 330 331 330 330 330 329 328
335 336 337 336 337 336 336 336 335 335 333 331 330 329 329 330 332 331 331 334 335 332 332 334 334 333 333 333 333 334 334 334 335 334 333 333 332 331 331 331 332 332 331 332 332 331 330 330 329 329 328 327 328 329 330 330 330 331 331 330 330 330 328 327 327 324 325 327 327 327 327 327 327 327 327 329 330 330 330 330 330 330 330 330 331
335 336 336 336 336 336 336 336 335 335 333 332 331 330 331 331 332 331 330 335 334 331 332 332 332 332 333 334 333 333 334 334 334 333 332 332 331 331 331 332 332 332 332 332 332 331 331 330 329 328 327 328 328 328 329 329 330 330 330 331 331 330 329 328 326 324 324 325 325 325 325 326 326 326 326 327 328 329 329 329 329 329 330 330 330
335 335 335 336 335 335 335 335 335 335 333 333 332 332 333 332 332 331 330 333 332 330 332 332 332 333 334 334 333 333 333 334 334 334 333 332 331 332 332 332 332 332 332 331 332 331 330 330 328 328 328 328 328 328 328 329 329 330 330 331 331 330 330 329 328 327 325 325 325 324 324 325 326 326 326 326 327 327 327 328 329 329 330 329 329
335 334 334 335 335 334 334 334 334 334 333 333 333 333 334 332 332 330 329 331 330 330 333 334 334 333 333 334 333 333 333 334 334 334 333 332 332 333 333 333 332 332 331 331 332 331 330 329 328 328 328 328 328 328 328 329 329 330 330 330 330 330 330 330 329 329 328 328 328 326 325 325 326 326 326 326 326 326 327 327 328 328 328 329 328
334 334 334 335 335 334 334 334 334 333 333 333 333 334 334 333 332 331 331 331 330 332 335 334 333 333 333 333 334 334 334 334 334 334 334 333 332 333 333 333 333 332 331 331 331 331 330 329 328 329 329 329 329 329 329 329 330 331 330 330 330 330 330 329 329 329 329 329 330 328 328 328 327 326 326 326 326 326 327 327 327 327 327 327 327
334 334 334 335 335 334 334 333 332 333 333 333 333 333 333 333 333 333 333 332 332 334 334 333 333 334 333 333 334 334 334 334 333 334 334 334 333 333 333 333 333 332 331 331 331 331 330 329 328 329 329 329 329 329 329 330 329 329 330 329 329 329 329 329 328 328 329 329 329 329 328 329 329 328 328 328 328 328 328 328 328 328 328 328 327
334 333 333 334 335 334 333 332 332 333 333 333 333 332 333 333 333 334 333 333 334 334 333 333 334 335 335 335 335 334 334 334 334 334 334 334 334 334 334 333 332 332 332 331 331 331 330 329 329 329 330 330 330 329 330 330 328 327 328 328 328 328 328 328 329 328 328 328 328 328 328 329 329 329 330 329 329 329 329 329 329 328 328 328 327
333 333 333 333 333 333 332 332 332 332 333 334 333 333 333 333 333 334 334 334 334 333 332 333 334 335 335 335 335 335 334 334 335 334 334 334 334 334 333 332 332 332 332 331 331 331 330 329 329 331 331 330 330 330 330 330 328 327 326 326 327 328 327 327 329 329 328 328 328 327 327 327 328 328 329 329 328 329 329 329 329 328 327 327 326
333 332 332 332 332 332 332 333 333 333 333 334 333 333 334 333 333 333 333 333 333 333 333 333 334 334 334 334 335 335 334 334 334 334 334 334 334 334 332 331 331 332 332 331 331 331 329 329 329 331 331 331 331 330 330 330 329 328 326 327 328 328 327 325 326 328 328 327 327 326 326 326 327 328 328 328 328 328 328 328 328 327 326 325 324
333 332 331 332 332 332 332 333 334 334 334 334 333 333 334 333 333 333 334 333 332 333 333 332 333 334 334 334 334 333 333 333 333 333 333 334 334 333 331 331 332 333 332 332 332 331 330 329 329 330 330 330 330 330 330 330 329 328 328 328 325 326 330 325 321 324 327 327 326 325 325 326 326 327 327 328 328 328 327 328 327 325 322 321 320
332 332 331 332 332 332 333 333 334 334 333 334 334 333 334 334 334 334 334 333 331 332 332 333 334 334 333 333 333 333 333 333 333 333 333 333 334 332 331 331 332 333 333 332 333 332 331 329 329 330 330 330 330 330 330 329 329 328 329 329 327 329 331 325 321 322 324 326 326 325 326 325 325 326 326 327 327 327 327 326 324 320 317 317 318
332 332 332 332 332 333 333 333 333 333 333 334 334 334 334 334 334 334 333 332 332 332 333 334 333 333 332 332 332 332 332 333 332 332 332 332 332 332 332 332 332 332 332 332 333 332 331 331 330 330 330 330 330 330 330 329 329 328 328 328 329 330 327 323 325 324 321 324 326 326 326 325 325 325 325 326 326 326 325 323 319 315 312 313 316
333 332 332 333 333 333 333 333 333 333 334 334 335 334 334 333 332 332 331 332 333 333 333 333 332 332 331 330 331 331 331 331 331 331 331 331 331 331 331 332 331 332 332 331 332 332 332 332 331 330 330 330 330 330 330 330 329 329 329 328 327 328 325 322 325 324 323 324 323 324 326 324 325 325 325 326 325 324 323 319 313 309 309 311 312
333 333 333 333 333 333 333 333 333 333 334 334 335 334 332 331 330 330 331 332 332 332 333 332 331 330 329 329 329 329 330 330 330 330 330 330 330 330 330 330 330 331 331 331 332 332 331 332 332 331 330 330 330 330 330 330 329 329 329 328 327 326 324 322 322 322 324 325 322 322 324 325 325 326 325 324 323 322 319 313 308 306 307 308 308
333 333 334 334 333 333 332 332 333 333 333 334 334 333 331 329 329 331 331 331 330 331 331 331 330 328 327 327 327 327 327 327 327 327 327 328 327 328 328 329 329 330 330 331 332 332 332 332 332 331 330 330 330 330 330 330 329 329 328 327 326 324 322 321 321 320 322 325 324 320 320 324 325 325 325 324 323 320 314 310 307 306 306 306 306
333 334 334 334 333 333 333 332 332 333 333 333 331 330 329 328 329 330 330 330 329 329 330 328 328 327 326 326 326 326 326 326 326 325 325 326 325 326 326 327 328 329 329 330 332 332 332 332 331 331 331 329 329 329 330 330 329 329 328 327 325 322 320 319 320 320 320 321 323 319 318 322 323 323 325 325 322 316 311 309 307 305 305 305 305
333 334 334 334 334 334 333 332 333 333 331 329 328 328 328 329 329 330 329 328 328 329 329 327 327 326 326 326 326 326 326 326 325 325 325 325 324 324 324 325 326 328 328 329 330 331 331 331 331 330 330 329 329 329 329 329 329 329 328 327 325 323 321 319 319 321 319 318 320 318 316 319 321 320 323 324 319 313 311 309 306 305 305 305 304
Wind_Speed
21 22 21 24 24 23 22 20 19 22 23 22 23 23 22 22 22 22 23 25 26 27 26 27 27 27 27 28 28 28 29 29 29 28 29 27 26 25 25 26 26 25 24 23 23 23 23 24 24 24 23 23 22 23 24 24 23 22 22 21 20 19 20 20 19 19 19 20 19 19 19 19 18 17 17 18 18 18 18 18 19 19 19 20 20
26 22 24 24 25 24 22 21 20 23 23 22 23 22 23 22 22 22 23 25 26 27 27 27 27 26 27 28 27 28 28 28 27 27 27 25 24 23 25 26 25 24 24 24 23 23 23 24 24 24 24 23 23 24 25 24 22 22 21 21 20 20 20 19 19 19 19 20 19 19 19 19 17 17 18 18 18 18 18 18 18 19 19 19 20
28 24 25 25 26 25 23 21 21 23 23 22 22 22 23 23 23 22 23 25 26 26 27 26 27 26 26 28 27 27 27 26 26 25 25 24 22 22 24 26 26 24 24 23 22 22 22 23 23 23 23 22 22 23 23 22 20 20 20 21 21 19 19 18 19 19 18 19 19 20 20 19 17 17 18 18 18 18 17 17 17 17 17 18 19
29 26 25 25 26 26 24 21 22 24 24 22 22 23 23 24 23 22 23 25 26 26 26 26 26 26 25 26 26 27 27 26 25 24 24 23 22 21 21 23 24 23 23 23 22 22 22 22 23 22 22 21 21 21 21 21 20 19 19 20 20 20 19 17 18 19 18 20 20 20 20 18 16 15 16 16 16 16 16 16 16 17 16 16 17
28 27 27 27 27 27 24 22 23 24 24 23 22 22 22 24 23 22 23 26 26 25 25 25 25 25 24 25 26 26 26 26 25 23 23 22 22 21 20 21 22 22 22 22 23 23 22 22 22 21 20 20 20 20 20 19 19 18 19 18 17 19 18 16 16 17 18 19 20 20 19 17 16 15 15 15 15 15 15 15 15 15 15 15 16
28 29 28 28 28 27 24 23 23 24 24 23 22 21 22 24 23 22 23 25 25 24 24 24 24 24 24 24 24 25 25 26 24 23 23 23 22 22 21 21 20 20 20 21 22 22 22 22 20 20 19 19 19 19 18 17 16 16 16 15 13 13 14 14 12 14 17 19 20 20 18 17 17 15 14 14 13 13 13 13 14 14 14 14 15
29 30 28 29 29 27 25 23 23 25 24 23 22 20 21 22 23 23 23 24 23 23 23 22 22 23 23 22 23 25 25 26 24 23 23 23 23 21 21 20 20 19 18 18 19 20 20 21 19 18 17 18 18 18 18 16 15 14 13 12 10 10 11 12 11 13 17 19 20 19 18 18 17 15 14 13 13 12 12 12 12 13 14 13 14
29 31 29 30 30 28 25 23 23 24 24 23 22 20 21 21 22 22 22 22 22 21 21 21 21 21 22 21 21 24 24 25 24 23 23 22 22 21 20 19 19 18 18 17 17 18 18 19 18 17 17 17 17 18 17 15 14 13 11 9 8 9 9 11 11 13 15 17 17 17 19 18 17 16 15 14 13 12 12 12 12 13 13 13 14
30 30 30 31 30 29 25 23 23 24 24 23 22 21 21 21 21 21 21 21 21 20 20 20 20 20 21 21 21 23 24 24 23 22 21 21 21 21 20 19 19 19 18 16 16 17 17 17 17 17 17 17 17 17 16 14 13 11 9 6 6 8 10 12 12 12 13 14 15 18 20 18 17 16 14 14 14 13 12 12 13 13 12 12 13
29 29 30 31 30 29 26 24 22 23 23 23 22 21 21 21 21 21 21 21 20 19 20 19 20 20 19 20 21 22 23 23 22 21 21 21 21 21 20 19 19 18 16 13 14 17 18 18 18 18 17 17 17 17 16 14 13 11 9 7 7 10 13 14 12 12 13 14 17 20 20 17 17 16 15 15 15 14 14 13 13 13 12 12 13
29 29 30 30 30 29 26 24 22 22 23 24 22 21 22 20 20 21 21 21 20 18 18 18 19 19 18 18 19 21 22 21 21 20 21 21 21 21 20 18 17 16 13 11 12 15 17 19 19 19 18 17 17 16 16 14 14 11 10 10 10 13 15 14 13 13 14 16 18 21 19 17 16 15 15 14 14 14 14 14 13 13 12 12 12
28 28 29 30 30 28 26 24 22 22 24 24 22 22 21 19 18 20 21 20 20 18 17 18 19 19 18 18 19 21 21 20 20 20 20 19 20 19 18 16 15 13 12 11 12 14 16 19 19 18 17 17 17 16 16 14 14 12 11 12 13 15 15 14 14 15 15 15 17 19 18 16 15 15 15 14 14 14 14 14 13 13 14 14 14
28 27 28 29 29 27 26 23 22 22 23 22 21 21 20 19 17 18 20 19 19 18 17 17 18 18 17 18 19 20 19 19 19 19 19 18 18 17 16 14 13 12 10 10 12 12 14 18 19 18 17 16 17 16 15 14 14 13 12 14 15 15 14 13 14 15 14 14 15 17 17 15 15 14 14 14 14 14 13 13 12 12 13 13 14
27 26 27 28 28 27 25 24 22 22 23 22 20 20 19 18 17 18 19 18 17 17 16 16 16 17 17 17 18 18 17 17 17 17 17 17 17 15 14 13 12 10 9 9 12 12 13 16 17 17 17 16 16 15 14 14 14 14 14 14 14 14 13 14 14 14 14 14 14 15 17 16 15 14 13 14 13 13 12 12 11 11 12 12 12
26 25 26 27 27 26 24 23 23 23 22 22 20 19 19 17 17 18 18 17 17 16 16 16 16 16 16 16 16 16 16 16 16 17 16 16 16 15 14 13 12 11 10 9 11 13 13 15 16 16 16 15 15 14 13 14 14 13 13 14 14 13 13 13 14 14 14 14 13 14 15 15 14 14 13 13 12 12 12 12 12 12 12 11 12
25 25 25 25 25 24 23 22 22 22 22 22 20 19 19 17 17 18 18 17 17 16 16 16 16 16 16 16 16 16 17 17 17 17 16 16 15 15 14 14 14 13 12 10 11 14 14 15 16 15 15 14 14 13 12 13 14 12 12 13 14 14 12 13 14 14 14 13 13 13 14 14 13 13 13 12 12 11 11 11 12 12 12 11 12
24 25 25 24 24 24 23 21 20 20 21 21 19 19 19 17 18 18 18 17 16 16 15 15 15 15 16 16 16 17 16 16 17 17 16 16 15 15 14 14 14 14 13 11 12 15 15 15 15 14 14 13 13 12 12 13 13 12 12 14 14 14 12 12 13 13 13 13 13 13 14 13 11 12 13 12 11 11 11 11 11 11 11 11 11
23 24 24 23 23 23 23 22 21 20 20 20 19 19 18 17 17 17 17 17 16 16 15 14 14 15 16 16 16 16 16 15 16 16 15 15 15 14 14 14 13 13 12 12 12 14 15 15 13 13 13 13 12 11 12 13 13 12 12 15 15 14 12 12 12 13 13 13 14 14 13 11 10 12 13 11 11 10 11 11 10 10 10 11 12
23 24 23 23 22 22 23 22 22 21 21 21 20 19 18 17 17 17 17 16 16 15 14 14 14 15 16 16 16 15 15 15 15 15 15 14 14 14 14 13 12 12 12 12 12 13 14 14 13 12 12 13 11 11 12 12 13 13 12 16 16 14 12 12 12 12 12 13 14 14 13 11 11 12 12 11 11 11 11 10 9 9 9 10 12
23 23 23 22 22 22 23 23 23 22 22 22 20 19 18 17 16 17 17 16 15 14 14 14 15 15 16 16 16 15 14 14 14 14 14 13 13 13 13 12 11 11 11 10 11 11 12 13 13 11 12 12 11 11 12 11 12 13 13 16 17 14 12 12 12 12 12 12 13 14 13 12 11 10 10 11 12 11 11 10 9 9 9 11 12
23 23 23 22 22 23 23 23 23 23 23 22 21 20 19 17 17 17 16 15 15 14 15 15 15 15 16 16 16 16 14 14 13 13 12 12 12 12 12 12 11 11 10 9 10 10 10 11 11 11 11 12 11 11 11 10 11 12 14 16 17 14 12 11 12 12 12 12 12 13 13 11 11 9 8 9 11 11 10 9 9 9 10 11 11
22 22 22 22 22 22 23 23 23 23 23 23 22 21 19 18 18 17 17 15 15 15 15 16 15 15 15 16 17 16 15 14 13 12 11 11 11 11 12 12 11 10 10 9 10 10 9 9 10 10 10 11 12 11 10 10 10 11 14 16 16 14 11 11 12 12 12 11 12 13 13 11 10 9 8 9 9 9 9 8 8 9 10 10 9
21 21 20 21 22 22 22 23 23 24 24 24 23 21 20 19 19 17 17 16 16 16 16 16 16 15 15 16 16 16 15 14 13 12 11 11 10 10 12 11 11 10 10 10 10 10 8 8 9 9 9 10 11 10 10 10 10 10 14 16 16 13 12 12 11 12 12 11 12 12 12 10 9 9 8 8 7 8 8 7 7 8 9 9 9
17 19 20 20 21 22 22 22 24 24 24 24 23 21 20 19 18 18 17 17 17 16 15 15 16 16 16 16 16 15 14 13 12 12 11 11 10 10 11 11 11 10 10 10 10 10 9 8 8 8 8 9 10 9 10 10 10 11 14 17 16 14 12 12 11 12 12 12 12 12 12 10 9 9 8 7 6 7 8 6 6 6 7 8 8
16 18 20 20 21 22 23 23 24 24 24 23 22 21 20 20 18 18 17 17 17 17 15 15 16 16 16 16 16 15 14 14 13 12 11 11 10 10 10 10 11 10 10 10 11 11 10 9 8 9 9 10 10 9 9 11 10 11 14 17 16 14 13 12 12 12 12 13 13 12 11 8 8 9 7 6 6 5 6 6 6 6 7 7 8
23 21 21 21 21 23 23 24 24 24 23 23 22 21 22 21 19 18 17 17 17 17 16 16 17 16 17 17 16 16 15 14 13 11 10 10 10 9 9 9 10 11 11 11 12 11 10 9 9 9 9 10 10 8 9 11 10 10 13 16 16 14 13 12 12 12 12 12 12 12 11 8 8 8 6 6 5 4 6 6 7 7 6 7 7
26 25 25 24 23 23 24 24 24 24 24 23 22 22 23 21 20 19 18 17 16 15 16 17 17 16 17 17 17 16 15 14 12 10 10 10 9 9 9 9 10 11 11 11 11 10 9 8 9 9 8 9 8 7 8 11 10 10 12 15 15 14 13 12 11 12 12 11 11 11 12 10 8 5 5 7 4 5 5 5 7 7 6 6 6
26 27 28 28 26 25 25 25 25 26 26 25 23 23 23 21 20 19 18 17 15 14 16 16 16 16 16 16 15 15 14 13 11 10 11 10 10 10 9 9 10 11 10 10 10 8 7 7 7 7 7 6 5 5 7 10 10 8 11 14 15 14 12 11 11 12 11 11 10 11 12 11 7 4 6 6 5 5 5 4 5 7 8 6 6
29 29 29 30 28 27 26 26 26 26 26 25 24 24 22 20 20 18 17 16 14 15 16 16 16 15 15 14 13 13 12 11 11 11 12 12 11 10 9 9 9 9 9 8 8 6 5 5 5 6 5 4 3 4 6 8 8 7 9 13 15 14 12 11 11 11 10 10 10 11 12 11 7 5 5 5 5 5 4 3 3 6 8 7 6
30 31 31 31 30 29 28 28 28 26 25 25 25 24 21 20 19 17 17 15 15 16 17 16 15 15 14 13 12 11 10 10 11 12 12 12 11 10 8 8 8 8 7 7 6 4 3 3 3 4 4 3 3 3 6 8 9 8 9 12 14 13 11 11 11 10 9 9 10 11 12 11 9 6 5 5 5 5 5 3 2 4 6 7 7
29 29 29 30 30 31 31 29 28 27 26 27 26 23 21 20 19 18 18 17 17 18 18 17 15 14 13 12 11 11 10 10 10 12 12 12 10 9 7 6 6 6 5 5 3 2 2 2 2 2 2 2 4 5 6 8 9 9 9 12 14 13 12 11 10 10 9 9 9 10 11 11 9 7 6 5 3 4 4 4 2 3 4 6 6
28 27 26 28 29 30 31 30 29 28 29 28 25 22 20 20 21 20 19 18 19 19 19 17 15 14 12 11 11 11 10 10 11 11 11 10 9 7 6 5 4 4 4 3 2 1 1 2 2 2 2 3 6 8 8 9 10 10 11 13 14 13 12 11 10 10 9 10 10 10 10 9 9 7 7 5 4 3 3 5 5 3 3 5 5
24 23 24 25 26 26 28 29 29 29 29 27 24 23 22 21 22 22 20 20 20 19 18 17 16 13 11 10 10 11 10 10 11 11 11 9 8 7 7 6 5 5 5 4 3 2 2 2 3 2 3 6 9 11 11 11 11 12 13 15 15 13 12 11 10 9 9 10 10 9 9 8 7 6 6 6 5 3 1 3 5 4 3 5 6
21 21 24 25 25 26 26 27 28 28 27 24 23 24 24 23 23 23 22 21 20 18 18 17 15 12 10 10 11 11 10 10 10 10 10 10 8 8 7 7 6 6 6 5 4 3 3 3 4 3 4 7 10 13 13 12 13 14 15 16 15 13 12 12 9 8 9 9 9 9 8 7 6 5 5 6 6 4 2 3 5 5 4 4 5
21 23 24 25 27 28 26 27 26 26 25 23 22 23 24 24 24 24 22 21 19 18 17 15 14 12 12 12 11 11 10 10 9 9 10 10 9 8 7 6 6 6 7 6 5 4 3 4 5 5 6 7 10 13 14 14 15 15 14 14 14 12 12 10 9 9 9 9 8 7 7 6 5 4 4 6 7 5 3 2 3 3 2 2 2
24 26 25 25 27 27 27 28 28 26 24 22 21 22 24 25 25 24 23 21 18 16 16 14 14 14 14 13 11 10 10 9 9 9 10 10 9 8 8 7 6 6 7 7 6 5 4 6 7 7 7 8 12 14 15 16 17 15 13 13 12 11 10 9 9 10 8 7 7 6 6 6 5 5 5 5 6 5 3 1 0 1 2 2 2
25 27 25 25 26 26 26 27 27 26 23 22 22 23 25 25 24 24 22 20 18 16 16 15 14 14 13 12 11 10 9 10 9 9 10 10 9 9 9 8 5 6 7 8 7 5 4 7 9 9 9 10 14 16 16 16 17 15 14 13 11 9 8 7 7 8 7 6 6 5 5 5 5 5 4 4 4 3 3 2 2 2 2 3 4
23 25 26 24 25 25 24 24 24 24 23 24 25 25 26 24 23 23 21 20 19 17 16 14 13 12 11 11 10 9 9 10 10 9 10 10 10 10 9 7 6 6 7 8 7 6 6 7 11 12 11 12 15 16 16 17 18 17 15 12 9 8 6 6 6 5 5 4 4 5 5 4 5 5 4 4 3 3 2 2 2 2 2 3 5
20 23 24 24 24 24 24 24 24 24 23 24 26 26 25 23 22 21 20 20 19 18 15 13 11 10 10 10 10 9 9 9 10 11 10 10 10 10 8 6 6 7 8 9 8 8 8 9 11 14 14 14 15 16 18 19 19 16 13 10 9 8 7 6 5 4 4 4 5 6 6 5 5 5 4 4 3 3 2 1 1 2 2 3 5
20 22 23 24 24 24 24 23 25 26 24 24 25 24 23 23 23 21 20 20 19 17 14 12 10 9 9 9 9 9 9 9 10 11 10 10 9 9 8 7 7 7 9 10 10 10 10 10 12 15 17 16 16 18 20 22 21 16 13 11 9 7 6 5 6 5 4 4 4 5 5 6 6 6 5 4 3 3 2 1 2 3 4 4 5
19 22 23 24 25 25 24 22 23 26 26 26 25 24 23 23 23 21 21 19 17 15 13 11 10 9 9 9 9 8 9 9 9 10 10 9 9 9 8 8 8 8 9 9 10 11 11 12 15 17 18 19 19 19 21 24 24 19 14 11 9 7 6 5 5 5 4 4 5 6 5 6 6 6 6 4 2 2 1 1 2 3 5 6 7
20 21 23 24 24 24 23 20 22 25 27 27 25 25 25 25 24 22 20 18 15 13 11 10 9 8 9 8 8 8 9 9 9 9 9 9 9 9 9 9 9 9 10 10 11 11 12 14 17 18 19 20 20 20 21 18 17 17 15 10 8 7 7 6 5 5 4 5 6 6 5 5 5 5 4 3 1 2 2 2 3 5 7 7 8
20 20 22 23 23 23 22 21 24 26 26 27 26 26 26 24 22 20 18 15 13 11 9 9 9 9 9 9 9 9 10 9 9 9 8 8 9 10 10 10 10 11 12 12 12 13 14 15 18 20 20 20 19 20 17 11 14 18 15 8 3 3 5 6 6 5 5 6 7 7 6 6 6 5 5 4 5 6 5 4 5 7 9 9 8
20 20 21 22 23 23 23 24 27 27 27 27 27 26 24 21 18 17 15 13 12 11 9 10 10 10 10 10 9 9 9 9 9 8 7 8 9 10 10 10 11 12 13 14 13 14 15 16 18 19 21 20 18 16 11 11 18 17 9 4 2 3 2 2 6 7 5 7 7 7 8 8 8 7 6 7 8 7 6 6 8 9 10 9 9
21 22 22 22 23 24 25 26 28 28 27 27 26 25 23 21 17 16 14 12 12 12 11 11 11 11 11 10 9 8 8 8 8 7 7 8 9 10 9 10 12 13 13 13 12 13 15 16 17 17 18 18 18 15 10 12 17 13 7 6 3 2 2 3 5 6 4 7 7 7 9 9 8 8 8 8 8 8 7 8 9 9 10 10 10
22 23 23 23 24 26 26 26 27 27 27 27 25 24 23 21 20 19 17 15 14 14 14 14 13 12 10 9 8 7 7 7 7 7 7 7 8 9 10 10 12 12 12 11 12 13 13 15 15 15 15 15 17 17 13 13 14 9 8 7 3 4 8 6 4 3 4 6 6 7 9 9 9 9 10 9 9 10 10 9 9 9 10 10 9
22 23 22 22 24 26 26 26 26 26 27 26 24 23 22 21 21 22 20 20 19 18 16 15 13 12 11 10 10 8 7 7 7 7 6 6 7 8 9 10 11 11 11 10 11 12 13 13 14 14 14 13 15 16 15 15 14 9 7 6 3 9 17 12 6 4 3 3 5 9 10 8 9 11 11 11 11 12 11 9 9 10 10 10 10
21 23 23 23 25 26 25 25 25 26 26 24 22 22 22 22 23 22 21 21 21 19 17 16 14 14 13 12 11 11 10 9 9 8 7 7 6 6 7 8 9 10 10 10 11 12 12 12 13 12 12 13 13 15 16 17 15 11 8 6 5 13 19 14 13 12 5 2 4 8 10 10 11 12 12 12 11 11 10 10 10 10 11 11 11
21 23 24 25 25 25 24 24 24 25 24 23 22 22 23 24 24 23 22 22 20 19 19 17 17 16 15 14 13 13 12 11 10 9 8 7 7 6 6 7 7 9 10 10 10 11 11 11 12 11 11 12 12 13 15 17 17 14 10 8 11 15 15 12 14 15 8 5 4 3 9 12 11 11 11 11 10 9 10 10 10 10 10 11 11
21 23 24 25 25 25 24 24 23 24 23 23 23 23 24 25 25 24 24 22 21 21 20 19 18 17 15 15 14 13 12 11 10 9 9 8 7 6 5 6 7 7 9 10 11 11 10 10 10 10 10 10 11 12 13 15 16 14 12 11 15 17 14 10 12 13 10 7 4 5 10 12 9 8 8 9 9 9 9 9 9 9 10 10 11
20 23 23 24 24 24 25 25 24 24 23 23 24 25 26 28 27 26 24 23 23 23 22 21 20 18 16 14 13 12 11 11 11 9 8 7 6 4 3 5 7 7 8 9 10 10 9 9 9 9 9 9 10 11 11 13 15 15 13 12 15 19 17 14 15 16 13 9 7 6 8 11 10 9 8 8 9 9 8 8 8 8 9 10 11
Wind_Direction
166 164 164 163 162 160 161 159 153 151 150 145 139 135 132 128 126 124 122 124 122 121 120 121 122 122 122 122 121 120 119 118 117 117 116 115 115 113 110 109 109 109 109 107 106 104 103 106 106 106 104 103 102 104 104 101 99 96 91 89 88 87 85 84 84 81 82 82 84 88 87 89 85 78 82 85 85 83 83 84 80 74 74 75 72
163 163 165 164 164 161 162 159 155 154 152 148 142 137 133 129 127 123 121 121 121 121 120 121 121 121 122 121 120 120 119 117 115 114 114 115 114 110 106 109 110 110 109 108 108 107 106 108 109 109 107 107 106 106 105 102 100 99 96 92 88 87 86 84 85 84 84 86 84 86 89 91 87 75 77 82 82 80 81 82 78 72 73 76 75
158 162 166 164 164 162 163 159 156 155 154 151 144 139 134 131 127 122 120 120 121 121 121 123 122 122 123 121 120 120 119 119 117 114 115 116 114 109 105 109 112 111 110 109 108 108 109 111 112 111 110 109 109 109 107 105 103 100 99 96 93 86 83 82 86 88 87 90 88 88 91 91 88 79 76 77 77 77 76 77 76 73 73 75 77
156 161 165 164 164 163 163 160 157 157 156 153 146 140 136 133 127 121 120 121 122 122 122 123 123 122 121 120 120 120 120 120 118 117 117 117 117 114 109 110 113 113 111 110 110 111 112 113 113 111 110 109 110 109 108 107 106 105 102 99 96 85 80 81 86 92 94 96 94 92 92 91 90 85 82 78 76 77 76 77 76 75 74 73 73
156 160 164 164 164 163 163 161 159 158 157 154 148 141 138 135 129 124 122 124 124 124 124 123 122 120 120 120 120 121 120 120 118 117 117 117 118 115 113 112 114 113 112 113 113 114 114 115 112 110 110 111 112 111 111 109 109 113 112 109 100 87 83 83 85 93 99 101 97 94 94 92 90 88 89 85 81 80 80 78 75 74 74 75 73
157 160 164 164 163 163 163 162 160 159 158 156 150 143 139 135 131 128 125 126 125 125 126 124 122 120 120 119 120 121 121 121 119 116 114 114 116 115 115 115 115 113 114 117 117 115 116 116 114 112 112 113 113 112 112 110 109 112 115 119 111 94 86 84 91 97 100 104 101 97 95 93 93 92 91 87 85 86 84 80 77 73 70 70 71
157 160 164 164 163 163 163 163 161 160 160 158 152 145 139 134 132 131 128 127 125 126 126 124 123 123 123 120 121 122 121 122 121 116 115 116 117 118 118 118 117 115 114 116 117 118 118 119 118 115 114 115 115 114 111 108 111 113 114 118 117 109 94 89 102 105 101 105 105 101 99 94 93 93 90 88 89 90 89 85 81 77 72 71 74
157 161 163 163 163 162 163 163 161 161 161 158 153 146 139 134 134 132 130 129 127 127 125 125 125 126 125 122 123 122 121 122 123 122 123 123 123 120 119 120 118 116 115 112 113 119 120 119 120 118 118 118 117 118 114 110 110 112 114 121 132 131 113 103 112 112 106 108 104 102 103 96 92 92 89 89 90 91 94 92 87 83 81 82 87
158 161 163 163 163 163 163 163 162 162 161 158 155 148 141 136 135 134 134 132 129 128 127 127 128 129 128 125 123 123 123 124 126 126 126 125 124 122 122 124 122 120 119 114 108 119 126 123 125 123 124 123 122 120 115 111 106 104 108 122 133 131 129 124 123 119 112 109 99 98 101 96 95 94 88 88 90 93 101 102 95 89 86 84 84
158 161 163 163 162 163 163 163 164 164 162 160 158 150 142 138 137 137 138 135 132 129 128 130 132 130 129 128 125 126 128 128 129 128 128 126 126 126 128 129 129 126 125 117 103 117 131 132 133 131 131 129 124 119 114 110 102 100 107 111 103 116 134 135 130 120 112 106 99 99 99 96 97 96 93 92 91 92 97 98 94 92 89 85 83
158 161 162 163 162 164 164 164 165 165 163 161 157 150 144 139 138 138 137 136 133 129 127 130 131 130 130 130 128 131 132 131 131 130 131 130 130 131 133 133 133 132 127 118 103 113 131 137 138 136 133 129 124 118 112 105 97 100 111 110 104 116 129 130 127 119 111 104 101 105 105 105 105 101 96 95 94 92 92 91 89 89 86 85 87
157 160 161 162 162 164 165 164 165 165 162 159 155 151 144 137 137 137 136 136 134 129 127 128 129 131 132 131 132 136 136 135 134 132 131 131 133 135 135 134 134 134 127 116 105 109 127 139 140 137 134 128 122 115 109 100 94 103 116 118 115 120 123 124 124 118 112 105 104 110 113 112 108 105 98 96 98 96 94 93 91 91 89 89 90
156 159 160 161 162 164 165 163 164 163 160 156 153 149 141 136 138 137 136 136 133 129 127 128 130 132 132 134 139 141 140 140 139 137 134 133 135 136 135 133 131 131 125 111 103 106 123 138 140 138 134 127 120 111 106 96 93 109 123 126 127 125 122 121 120 116 111 104 103 109 113 108 104 105 102 98 98 97 97 96 95 97 94 91 90
154 157 159 160 161 163 164 163 164 162 158 154 152 148 141 138 138 137 136 134 130 127 126 128 130 130 129 133 140 143 142 142 142 142 140 139 138 137 135 131 129 128 123 109 101 106 121 136 140 138 133 125 118 109 103 94 95 114 130 133 134 131 124 120 117 114 110 105 102 106 111 110 109 108 106 105 102 100 99 96 95 98 95 89 87
153 155 158 159 159 162 163 163 163 160 157 155 153 148 143 141 139 138 135 133 130 129 129 129 129 129 128 129 135 138 139 139 140 143 142 142 141 140 136 130 129 125 121 111 101 108 122 136 140 137 133 125 116 107 100 96 97 112 133 139 141 136 125 119 116 113 110 107 105 107 111 111 112 110 106 106 105 102 101 100 97 97 95 91 88
152 154 156 157 157 160 161 160 161 161 159 157 155 149 146 144 141 140 137 135 133 133 134 133 134 134 133 131 131 132 133 135 138 141 141 142 142 140 135 129 129 126 124 117 105 109 123 135 141 139 135 128 117 107 98 96 97 109 133 144 145 139 127 119 115 114 111 110 110 110 109 108 110 111 109 107 108 105 101 102 99 96 92 90 90
150 152 153 155 157 159 159 158 158 161 161 157 155 152 150 148 144 142 140 139 138 138 138 136 138 139 139 137 134 133 133 135 137 140 140 140 139 137 134 130 130 128 126 120 108 110 124 135 141 142 139 133 121 108 99 96 96 108 135 147 148 143 131 119 114 116 114 114 113 113 113 113 113 113 115 113 113 110 106 104 98 95 92 91 91
146 150 150 153 156 159 159 158 157 160 160 155 155 155 153 151 147 146 144 144 144 143 141 139 140 141 143 143 142 139 136 137 138 139 139 137 137 136 133 132 130 130 126 120 110 108 124 136 140 142 142 138 125 109 100 96 96 107 135 148 149 144 135 122 116 118 118 117 116 119 120 117 114 112 115 115 112 111 107 103 98 96 92 91 89
144 146 147 151 155 159 161 160 160 160 160 157 157 158 157 154 150 150 149 149 148 145 143 144 145 144 146 148 149 147 142 140 139 139 138 137 137 135 134 131 131 132 128 122 114 109 122 136 142 143 144 143 131 113 101 97 97 105 131 148 149 145 139 126 119 121 120 118 119 124 123 117 117 114 111 112 112 110 108 105 103 101 96 96 93
140 143 146 151 154 157 161 161 161 161 161 160 159 161 161 157 154 155 154 151 148 145 144 145 147 146 149 151 153 153 149 143 141 140 139 138 136 134 132 130 132 132 129 125 118 113 120 132 141 143 147 148 139 119 105 99 99 109 132 146 150 148 141 130 123 123 122 119 120 126 128 125 123 117 109 105 100 99 105 109 108 103 98 99 97
135 141 146 151 155 158 161 161 162 162 162 161 160 161 163 161 159 158 156 152 148 146 144 143 146 146 148 150 154 158 155 150 147 144 139 135 132 131 129 128 131 128 128 126 117 116 121 129 138 141 147 152 147 125 109 104 100 114 138 149 152 150 140 133 126 125 125 122 122 126 131 132 127 122 114 101 92 87 93 101 104 102 98 98 98
132 140 147 151 154 158 160 160 161 163 163 164 163 162 164 163 161 159 155 152 148 147 145 145 146 145 148 150 154 158 157 157 153 149 141 136 133 130 126 126 127 124 125 123 113 114 118 126 136 143 148 153 149 128 111 109 100 114 144 155 154 149 143 137 129 126 127 125 125 126 129 129 125 124 117 108 99 87 87 92 100 105 104 104 103
132 142 149 151 152 156 159 160 161 164 166 166 164 164 164 162 160 159 155 154 152 152 150 149 149 149 153 153 153 155 155 157 156 152 146 140 136 129 126 125 125 124 124 117 110 110 111 118 135 149 151 149 145 126 110 110 100 109 142 156 155 152 148 139 132 128 128 128 128 129 130 129 126 128 124 122 111 88 86 90 99 109 111 113 109
128 142 149 151 151 154 158 160 162 165 167 164 163 162 160 160 160 161 159 157 157 157 155 153 153 153 153 153 153 153 153 155 155 154 151 146 140 134 132 131 130 128 125 116 109 108 108 114 132 151 150 143 138 118 108 113 103 107 134 152 157 154 149 140 135 132 130 130 127 127 131 132 129 132 133 133 119 87 79 81 96 110 113 115 111
138 143 149 154 153 155 159 162 164 165 166 164 161 160 160 161 162 163 162 161 161 160 159 157 155 154 153 155 155 154 155 157 158 157 154 151 149 147 140 136 135 133 128 117 110 110 111 117 130 144 145 142 138 120 115 120 113 115 134 151 157 155 150 144 140 137 135 132 129 128 134 137 130 136 143 135 122 89 75 80 92 101 110 113 110
151 151 154 160 160 160 162 164 167 166 166 165 162 163 165 165 164 165 166 165 164 161 161 161 158 157 158 158 159 159 160 160 159 157 156 157 156 154 146 140 137 133 126 117 116 117 118 122 129 140 144 146 145 132 128 130 126 127 139 153 159 156 152 149 146 144 142 139 139 142 147 149 143 148 147 132 123 85 77 92 91 84 98 109 104
155 156 158 164 168 167 167 168 170 168 167 167 168 170 168 166 166 168 170 167 164 164 166 164 161 162 163 162 163 164 163 161 160 158 161 165 162 158 153 145 136 130 125 122 123 123 122 125 132 142 147 152 152 141 138 140 141 140 145 157 162 158 155 152 150 150 150 150 153 158 158 156 158 163 145 133 120 81 81 99 87 70 77 96 101
160 160 161 166 171 170 170 171 174 173 171 171 172 172 167 166 169 170 172 173 171 172 172 168 164 166 167 166 168 167 165 163 163 167 171 172 170 165 158 148 137 132 129 126 127 126 125 127 135 148 153 159 158 145 142 144 149 150 147 158 166 163 159 155 154 154 155 155 156 162 162 155 153 147 137 129 95 77 90 110 86 64 66 79 93
165 166 166 166 170 171 171 174 174 173 172 172 171 172 172 174 176 175 177 181 179 179 180 174 169 170 173 173 173 171 171 173 174 180 180 178 178 173 161 148 139 132 128 127 128 130 132 136 144 157 165 169 161 146 143 140 139 143 145 158 167 165 162 159 157 156 156 155 149 152 157 153 142 129 128 120 100 91 100 121 108 74 65 68 82
169 171 169 166 169 171 173 176 175 175 175 172 171 176 182 184 185 184 183 181 179 184 185 179 175 176 179 179 181 184 187 188 187 189 186 184 183 176 165 153 143 136 132 131 130 128 135 147 155 166 177 176 169 156 145 134 126 134 146 158 165 165 163 160 158 156 156 157 150 144 147 146 139 132 119 114 118 112 99 110 121 88 69 65 79
171 172 170 167 170 172 174 176 177 180 178 173 176 183 188 191 194 193 188 182 182 188 187 182 182 183 185 185 189 198 203 199 198 197 191 189 188 183 177 161 149 151 149 144 138 133 145 159 172 182 182 164 161 151 148 144 134 137 151 158 162 164 162 159 157 157 158 161 157 147 144 142 141 139 131 122 115 107 91 91 106 100 75 61 71
172 172 171 167 169 171 171 174 178 180 177 177 183 191 196 198 199 197 189 185 188 190 186 184 187 186 188 190 194 204 207 210 211 208 202 197 198 198 196 184 173 183 182 178 180 189 194 190 200 196 154 151 156 153 158 161 150 148 157 161 161 160 158 155 154 157 164 165 162 156 151 149 149 149 153 147 131 124 80 87 110 122 87 59 62
171 169 168 168 167 167 169 174 179 180 179 183 191 198 203 202 199 196 190 190 193 191 186 189 192 189 189 195 203 206 208 214 213 213 211 209 213 213 212 213 211 211 208 205 204 204 209 199 192 186 155 158 159 158 162 161 157 156 161 164 161 158 152 145 146 155 168 168 163 166 164 160 162 164 168 163 151 158 145 108 121 120 88 68 78
167 162 163 165 168 169 171 176 181 182 181 186 195 200 204 201 195 192 191 194 195 191 189 192 196 195 198 203 205 204 205 209 211 213 211 216 223 218 220 220 210 208 205 201 201 196 201 203 201 184 158 164 163 160 159 154 154 157 162 169 167 158 147 142 143 154 169 169 164 169 168 165 167 169 174 170 163 165 180 162 141 137 119 93 97
163 161 164 167 172 174 175 180 184 184 183 187 195 198 200 198 194 191 194 197 197 194 192 193 195 198 203 204 202 200 201 204 209 213 212 215 216 211 211 206 195 192 193 193 191 192 198 194 195 184 164 166 163 159 158 152 152 157 166 176 172 160 153 153 156 158 167 168 163 164 162 161 162 161 166 168 171 172 163 134 123 145 160 133 139
167 166 169 172 175 175 175 182 188 187 186 188 192 197 198 196 194 194 196 199 198 194 190 191 197 202 206 207 203 199 199 203 210 211 210 209 205 200 197 193 185 178 183 188 185 196 208 183 179 184 174 163 158 155 155 153 149 154 171 181 172 162 159 160 161 159 165 167 159 156 153 157 161 158 160 167 178 188 190 180 145 266 275 289 295
171 170 170 173 176 175 174 182 189 190 191 188 189 196 196 194 195 195 196 199 198 194 192 194 204 208 209 209 207 203 202 206 211 208 206 207 200 195 193 188 179 174 178 183 181 183 194 177 165 174 180 165 157 154 152 150 146 154 173 176 164 156 149 144 153 161 165 164 155 150 149 152 159 159 162 172 184 197 211 237 257 260 284 305 317
170 170 170 171 173 177 180 183 185 188 192 192 192 194 193 192 194 196 198 198 198 198 199 203 208 211 208 208 210 210 209 207 210 206 201 201 197 196 196 183 176 178 175 177 180 169 168 172 161 163 172 163 158 155 148 141 140 153 166 162 150 146 134 122 136 154 156 155 150 154 157 154 154 156 168 180 185 200 221 249 276 277 290 317 328
165 169 170 167 168 173 179 180 179 182 187 190 191 190 189 189 189 193 195 195 197 200 202 205 207 208 204 204 210 215 216 209 207 207 201 199 197 197 196 185 183 183 175 176 179 170 164 167 161 158 160 158 155 150 143 136 135 147 150 135 126 124 118 113 119 132 139 147 151 160 174 177 170 166 183 195 180 184 201 242 328 350 348 349 353
166 169 167 166 167 169 173 176 178 180 180 180 182 183 183 184 185 188 191 192 195 198 200 203 202 202 197 197 206 215 216 209 208 211 206 203 202 200 196 194 194 187 183 180 176 173 169 165 162 158 153 148 145 143 142 135 126 126 127 121 118 110 103 104 109 115 122 138 149 154 167 178 182 186 204 218 201 195 197 112 42 48 47 34 29
168 168 164 165 167 168 168 168 175 180 178 176 179 179 178 178 181 186 190 191 192 194 196 196 196 199 195 197 203 209 214 213 215 216 211 209 209 205 200 201 197 191 191 185 175 173 172 168 163 159 153 144 140 142 144 134 120 115 116 112 109 105 93 91 105 122 124 130 138 137 142 156 176 190 205 224 224 220 206 100 79 83 74 53 45
168 167 164 165 167 167 164 163 171 177 177 176 176 178 179 179 181 184 185 185 186 187 188 189 196 202 199 202 204 206 213 215 213 214 213 211 211 208 204 203 196 190 191 186 179 172 171 171 163 156 153 147 142 143 144 137 122 121 121 105 90 90 82 81 104 133 125 118 131 128 121 132 152 169 180 191 154 118 113 102 88 84 75 60 46
168 166 165 165 166 167 167 168 171 173 173 174 174 177 181 181 180 178 175 177 179 181 185 189 196 201 199 202 206 207 208 207 206 207 208 205 209 210 204 199 191 185 185 181 176 169 167 172 167 159 153 148 146 147 147 145 134 129 123 110 96 87 64 59 80 107 119 115 123 120 103 105 116 128 139 131 120 118 112 94 72 67 62 52 44
167 166 166 165 165 168 170 171 172 171 172 175 176 178 179 178 175 172 172 176 176 181 190 191 190 193 194 195 198 201 199 197 196 196 198 199 203 205 198 192 185 181 182 178 173 169 169 171 170 167 160 152 151 155 155 152 147 138 121 101 115 112 83 63 71 73 106 122 118 114 102 98 103 108 119 121 121 121 109 90 73 62 54 49 49
167 167 167 165 165 167 169 170 172 174 176 177 178 178 175 174 174 174 176 178 177 183 188 185 184 184 184 183 183 186 187 189 188 183 187 193 194 195 193 187 182 180 181 180 175 173 174 174 175 174 168 161 161 162 160 157 157 152 137 125 114 119 200 169 102 69 90 126 126 118 104 94 99 109 117 119 118 113 100 88 75 61 54 55 58
168 167 168 166 165 167 168 170 173 175 176 176 176 177 175 176 177 175 175 173 173 181 184 178 176 174 170 168 166 168 173 174 172 169 175 182 182 186 189 186 183 181 182 184 184 181 179 180 180 181 179 173 170 167 164 165 166 158 147 143 125 161 167 150 116 61 76 118 126 118 105 96 104 115 117 114 111 107 100 86 71 62 60 64 67
167 164 166 165 167 170 172 174 175 174 175 176 177 179 179 180 179 177 176 174 172 176 178 170 166 162 157 154 154 155 159 158 155 154 161 169 168 173 182 185 187 185 183 186 189 190 187 185 186 188 189 187 182 176 172 171 170 163 159 156 119 156 161 153 146 142 102 111 116 107 107 106 112 118 116 114 112 107 98 80 67 68 74 77 78
165 162 164 167 170 173 176 178 176 176 177 178 180 182 181 179 178 178 176 173 170 168 167 163 160 156 150 146 144 144 144 144 144 143 144 149 149 155 165 176 184 186 185 186 188 193 193 188 187 191 196 201 202 194 183 178 175 169 162 152 132 157 165 164 158 148 125 110 110 99 108 121 129 129 123 119 115 107 93 75 68 73 81 86 87
166 163 165 168 172 174 175 176 177 178 180 181 183 185 183 179 178 178 173 169 164 160 160 159 157 155 149 143 139 137 136 134 133 131 132 136 140 146 152 162 174 181 184 185 185 191 193 189 185 188 196 204 212 210 198 189 185 179 170 148 136 149 158 159 153 143 127 134 148 119 122 128 131 132 132 127 114 100 85 70 68 77 84 90 93
169 168 168 170 172 173 174 174 175 178 181 184 185 186 186 184 182 179 172 167 164 161 161 159 157 157 152 147 144 141 139 136 132 130 130 133 136 141 150 160 166 177 186 186 184 187 191 191 189 192 200 207 211 213 209 204 198 191 184 161 143 144 144 146 151 145 132 126 136 141 139 139 135 130 139 133 112 96 79 68 68 80 91 95 97
171 172 170 170 171 172 173 174 175 178 180 183 183 183 185 185 183 180 173 169 168 167 165 163 163 163 159 157 155 153 151 148 142 138 137 137 136 136 147 164 166 168 177 182 184 186 186 185 189 196 204 212 212 209 207 210 209 201 193 179 163 161 160 163 167 159 146 134 130 126 133 141 134 130 145 140 118 103 82 71 76 87 98 101 101